This is the latest recevied weather packets stored in our database for station/object XE2MEM-21. If no packets are shown the sender has not sent any weather packets the latest 10 day(s).
| Time | Temp. | Humidity | Pressure | Rain* | Wind** | Luminosity | Snow |
|---|---|---|---|---|---|---|---|
| 1777639167 | 25.56° C | 100% | 1004.4 hPa | - | - | - | - |
| 1777638267 | 25.56° C | 100% | 1004 hPa | - | - | - | - |
| 1777637372 | 25.56° C | 100% | 1004.1 hPa | - | - | - | - |
| 1777636465 | 25.56° C | 100% | 1003.9 hPa | - | - | - | - |
| 1777635565 | 25.56° C | 100% | 1004.1 hPa | - | - | - | - |
| 1777631584 | 25.56° C | 100% | 1003.6 hPa | - | - | - | - |
| 1777630684 | 25.56° C | 100% | 1003.7 hPa | - | - | - | - |
| 1777630367 | 25.56° C | 100% | 1003.8 hPa | - | - | - | - |
| 1777629466 | 25.56° C | 100% | 1003.5 hPa | - | - | - | - |
| 1777628963 | 26.11° C | 100% | 1003.6 hPa | - | - | - | - |
| 1777628063 | 25.56° C | 100% | 1003.6 hPa | - | - | - | - |
| 1777627163 | 26.11° C | 100% | 1003.6 hPa | - | - | - | - |
| 1777626263 | 26.11° C | 100% | 1003.8 hPa | - | - | - | - |
| 1777625363 | 26.11° C | 100% | 1004 hPa | - | - | - | - |
| 1777624465 | 26.67° C | 100% | 1003.9 hPa | - | - | - | - |
| 1777623563 | 26.11° C | 100% | 1003.9 hPa | - | - | - | - |
| 1777622662 | 26.67° C | 100% | 1003.7 hPa | - | - | - | - |
| 1777620657 | 26.67° C | 100% | 1003.2 hPa | - | - | - | - |
| 1777618888 | 27.22° C | 100% | 1003.5 hPa | - | - | - | - |
| 1777617890 | 26.67° C | 100% | 1003.4 hPa | - | - | - | - |
| 1777617591 | 27.22° C | 100% | 1003.3 hPa | - | - | - | - |
| 1777616691 | 26.67° C | 100% | 1003.4 hPa | - | - | - | - |
| 1777615791 | 27.22° C | 100% | 1003.5 hPa | - | - | - | - |
| 1777615522 | 27.22° C | 100% | 1003.5 hPa | - | - | - | - |
| 1777614889 | 26.67° C | 100% | 1003.5 hPa | - | - | - | - |
* Rain since midnight (hover to see other rain measurements)
** Current wind speed in m/s (hover to see current wind gust speed)